Location: Tamazert
(32.6352°N, 5.2072°W)
Time: 01:18:01
(UTC+00:00)

Vanguard 1 Rocket - Pass Details

Date: 06 October 2022
Orbit: 650 x 4225 km, 34.3° (Epoch: 05 December)

Event Time Altitude Azimuth Distance (km) Brightness Sun altitude
Rises 22:20:00 0° 277° (W) 7,606 12.5 -52.8°
Reaches altitude 10° 22:25:54 10° 278° (W) 6,088 11.9 -53.7°
Enters shadow 22:36:59 43° 282° (WNW) 3,001 9.9 -55.3°
